Regional Weather Roundup
Issued by NWS Cleveland, OH

Home | Current Version | Previous Version | Text Only | Print | Product List | Glossary Off
Versions: 1 2 3 4 5 6 7 8 9 10 11 12 13 14 15 16 17 18 19 20 21 22 23 24 25 26 27 28 29 30 31 32 33 34 35 36 37 38 39 40 41 42 43 44 45 46 47 48 49 50

000
ASUS41 KCLE 051702
RWRCLE
OHIO REGIONAL WEATHER ROUNDUP
NATIONAL WEATHER SERVICE CLEVELAND, OH
1200 PM EST MON DEC 05 2016

NOTE: "FAIR" INDICATES FEW OR NO CLOUDS BELOW 12,000 FEET WITH NO
SIGNIFICANT WEATHER AND/OR OBSTRUCTIONS TO VISIBILITY.

OHZ001>008-015>018-024>027-034-035-043-044-051800-
   NORTHWEST OHIO

CITY           SKY/WX    TMP DP  RH WIND       PRES   REMARKS
DEFIANCE       CLOUDY    37  30  75 S8        30.10S
FINDLAY        CLOUDY    37  29  72 SW8       30.08F
TOLEDO EXPRESS CLOUDY    36  32  85 SW10      30.08S
TOLEDO EXEC    CLOUDY    38  33  82 SW10      30.09F
LIMA           CLOUDY    34  31  88 SW6       30.09F WCI  29
$$

OHZ009>014-019>023-028>033-038-089-051800-
   NORTHEAST OHIO

CITY           SKY/WX    TMP DP  RH WIND       PRES   REMARKS
CLE-HOPKINS    CLOUDY    40  30  67 W12       30.10F
CLE-LAKEFRONT  CLOUDY    40  32  73 SW13      30.07F
CUY CO. ARPT   CLOUDY    39  36  87 W13       30.08R
LORAIN-ELYRIA  CLOUDY    37  29  72 W10       30.09F
ASHTABULA      CLOUDY    39  33  79 W14       30.05S
AKRON-CANTON   CLOUDY    38  29  70 W9        30.08F
WOOSTER        CLOUDY    37  29  72 W6        30.08F
MANSFIELD      CLOUDY    36  28  73 NW6       30.07F
YOUNGSTOWN     CLOUDY    38  31  76 SW12      30.06S
$$

OHZ042-051>053-060>062-070>072-077>081-051800-
  SOUTHWEST OHIO

CITY           SKY/WX    TMP DP  RH WIND       PRES   REMARKS
CINC-COVINGTON PTSUNNY   41  32  70 N5        30.11F
CINC-LUNKEN    MOSUNNY   41  33  73 NE3       30.14
HAMILTON       CLOUDY    42  31  64 SW6       30.14
DAYTON         CLOUDY    38  30  73 SW7       30.12S
WRIGHT-PAT AFB CLOUDY    39  31  72 S8        30.11F
DAYTON GENERAL CLOUDY    38  29  70 CALM      30.11
WILMINGTON     CLOUDY    40  32  73 S5        30.11F
$$

OHZ036-037-039>041-045>050-054>059-063>069-073>076-082>088-051800-
  CENTRAL AND SOUTHEAST OHIO

CITY           SKY/WX    TMP DP  RH WIND       PRES   REMARKS
COLUMBUS       CLOUDY    38  31  76 SW6       30.11F
OSU AIRPORT    CLOUDY    38  31  76 SW6       30.11
BOLTON FIELD   CLOUDY    37  30  75 S6        30.13R
RICKENBACK AFB CLOUDY    38  30  74 CALM      30.13S
NEWARK         CLOUDY    39  29  67 CALM      30.10F
MARION         CLOUDY    37  30  75 W7        30.10F
LANCASTER      CLOUDY    39  30  70 CALM      30.13
ZANESVILLE     CLOUDY    39  29  67 NW6       30.11F
NEW PHILLY     CLOUDY    38  31  76 CALM      30.10
$$




USA.gov is the U.S. government's official web portal to all federal, state and local government web resources and services.